DW5321 Paradera AW current weather conditions

sailwx.info

Wind from 129 at 8 knots gusting 14

Air temperature 28.9° C
Dewpoint 24.9° C

Last reported at 2017-Mar-30 15:44 UTC.
Time now 2017-Mar-30 16:43 UTC

Location: N 12°33' W 070°00'.
View on Google Maps.

See reports from other nearby stations

  
Tides and Currents Weather Stations Pressure Air Temp Water Temp Dewpoint Dewpoint Depression Visibility Wind Speed Wind Dir Waves Ship Positions
date/time (UTC)wind fromknots sea level pressurealtimeterstation pressurevisibilityair tempwater tempwave heightnotes
2017-Mar-30 15:44 129 8 gusting 14 28.9
2017-Mar-30 15:29 108 9 gusting 16 28.9
2017-Mar-30 14:57 060 8 gusting 14 28.9
2017-Mar-30 14:42 129 7 gusting 14 28.3
2017-Mar-30 14:27 083 11 gusting 16 28.3
2017-Mar-30 14:12 092 6 gusting 14 28.9
2017-Mar-30 13:57 114 8 gusting 15 28.3
2017-Mar-30 13:41 072 8 gusting 15 28.3
2017-Mar-30 13:26 131 7 gusting 16 28.3
2017-Mar-30 13:11 124 9 gusting 16 27.8
2017-Mar-30 12:56 113 8 gusting 16 27.8
2017-Mar-30 12:41 091 6 gusting 15 27.8
2017-Mar-30 12:26 084 6 gusting 13 27.2
2017-Mar-30 12:10 095 7 gusting 13 27.2
2017-Mar-30 11:54 106 6 gusting 12 26.7
2017-Mar-30 11:39 098 4 gusting 11 26.7
2017-Mar-30 11:24 087 4 gusting 7 26.7
2017-Mar-30 11:08 037 5 gusting 11 26.7
2017-Mar-30 10:54 069 5 gusting 7 26.7
2017-Mar-30 10:38 077 2 gusting 7 26.7
2017-Mar-30 10:22 090 3 gusting 7 26.1
2017-Mar-30 10:07 090 4 gusting 7 26.1
2017-Mar-30 09:51 129 4 gusting 8 26.1
2017-Mar-30 09:37 100 3 gusting 7 26.1
2017-Mar-30 09:22 084 4 gusting 8 26.1
2017-Mar-30 09:06 107 4 gusting 8 26.1
2017-Mar-30 08:50 094 5 gusting 9 26.7
2017-Mar-30 08:36 081 2 gusting 10 26.1
2017-Mar-30 08:21 081 5 gusting 9 26.1
2017-Mar-30 08:04 070 6 gusting 11 26.1
2017-Mar-30 07:51 078 5 gusting 9 26.1
2017-Mar-30 07:36 094 5 gusting 9 26.1
2017-Mar-30 07:19 042 4 gusting 9 26.1
2017-Mar-30 07:04 108 4 gusting 10 26.1
2017-Mar-30 06:49 099 3 gusting 6 26.1
2017-Mar-30 06:34 094 2 gusting 7 26.1
2017-Mar-30 06:19 086 4 gusting 8 26.1
2017-Mar-30 06:02 096 3 gusting 8 26.1
2017-Mar-30 05:47 078 4 gusting 7 26.1
2017-Mar-30 05:32 079 2 gusting 6 26.1
2017-Mar-30 05:17 076 4 gusting 9 26.7
2017-Mar-30 05:02 079 6 gusting 12 26.7
2017-Mar-30 04:47 081 7 gusting 11 26.7
2017-Mar-30 04:32 103 6 gusting 11 26.7
2017-Mar-30 04:16 084 5 gusting 10 26.7
2017-Mar-30 04:01 100 4 gusting 12 26.7
2017-Mar-30 03:46 066 6 gusting 10 26.7
2017-Mar-30 03:31 098 4 gusting 9 26.7
2017-Mar-30 03:16 086 6 gusting 13 26.7
2017-Mar-30 03:00 077 6 gusting 11 26.7
2017-Mar-30 02:44 092 7 gusting 11 26.7
2017-Mar-30 02:29 072 5 gusting 12 26.7
2017-Mar-30 02:14 077 4 gusting 11 26.7
2017-Mar-30 01:59 105 5 gusting 12 26.7
2017-Mar-30 01:44 075 5 gusting 9 26.7
2017-Mar-30 01:28 065 6 gusting 12 26.7
2017-Mar-30 01:14 101 6 gusting 12 26.7
2017-Mar-30 00:59 080 6 gusting 11 26.7
2017-Mar-30 00:42 095 4 gusting 12 26.7
2017-Mar-30 00:27 072 6 gusting 12 26.7
2017-Mar-30 00:12 079 6 gusting 12 26.7
2017-Mar-29 23:57 072 6 gusting 11 26.7
2017-Mar-29 23:41 080 6 gusting 13 26.7
2017-Mar-29 23:26 079 6 gusting 14 26.7
2017-Mar-29 23:11 091 4 gusting 12 26.7
2017-Mar-29 22:56 087 7 gusting 12 27.2
2017-Mar-29 22:41 095 6 gusting 12 27.2
2017-Mar-29 22:26 053 6 gusting 13 27.8
2017-Mar-29 22:11 101 7 gusting 13 27.8
2017-Mar-29 21:55 131 7 gusting 12 28.3
2017-Mar-29 21:41 070 5 gusting 10 28.3
2017-Mar-29 21:24 063 7 gusting 13 28.3
2017-Mar-29 21:09 094 6 gusting 13 28.3
2017-Mar-29 20:54 068 6 gusting 11 28.9
2017-Mar-29 20:39 077 8 gusting 15 28.9
2017-Mar-29 20:24 099 6 gusting 13 28.9
2017-Mar-29 20:07 079 7 gusting 13 29.4
2017-Mar-29 19:53 102 6 gusting 12 29.4
2017-Mar-29 19:37 046 6 gusting 12 29.4
2017-Mar-29 19:22 032 7 gusting 12 30.0
2017-Mar-29 19:07 078 8 gusting 13 29.4
2017-Mar-29 18:51 070 6 gusting 15 29.4
2017-Mar-29 18:36 079 7 gusting 13 29.4
2017-Mar-29 18:21 027 6 gusting 11 30.0
2017-Mar-29 18:06 042 4 gusting 11 30.0
2017-Mar-29 17:51 117 6 gusting 13 30.0
2017-Mar-29 17:35 103 6 gusting 12 30.0
2017-Mar-29 17:21 087 6 gusting 13 30.0
2017-Mar-29 17:05 120 9 gusting 16 29.4
2017-Mar-29 16:49 065 6 gusting 13 29.4
2017-Mar-29 16:34 082 6 gusting 13 30.0
2017-Mar-29 16:19 122 7 gusting 14 29.4
2017-Mar-29 16:04 110 7 gusting 13 29.4
2017-Mar-29 15:49 077 7 gusting 13 29.4
2017-Mar-29 15:33 110 7 gusting 13 29.4
2017-Mar-29 15:17 066 7 gusting 13 29.4
2017-Mar-29 15:02 054 7 gusting 13 28.9
2017-Mar-29 14:47 079 7 gusting 13 28.9
2017-Mar-29 14:32 102 6 gusting 12 28.9
2017-Mar-29 14:17 081 8 gusting 14 28.9
2017-Mar-29 14:01 096 7 gusting 12 28.3
2017-Mar-29 13:46 091 6 gusting 12 28.3
2017-Mar-29 13:30 071 9 gusting 15 27.8
2017-Mar-29 13:16 124 8 gusting 13 27.8
2017-Mar-29 13:01 103 6 gusting 12 27.8
2017-Mar-29 12:46 108 8 gusting 15 27.2
2017-Mar-29 12:31 092 5 gusting 11 27.2
2017-Mar-29 12:14 113 6 gusting 11 27.2
2017-Mar-29 12:00 124 4 gusting 11 26.7
2017-Mar-29 11:44 084 4 gusting 9 26.7
2017-Mar-29 11:29 096 4 gusting 9 26.7
2017-Mar-29 11:14 071 5 gusting 7 26.7
2017-Mar-29 10:57 094 4 gusting 6 26.1
2017-Mar-29 10:42 056 3 gusting 8 26.1
2017-Mar-29 10:27 089 4 gusting 9 26.1
2017-Mar-29 10:12 073 4 gusting 8 26.1
2017-Mar-29 09:57 101 3 gusting 6 26.1
2017-Mar-29 09:42 089 2 gusting 6 26.1
2017-Mar-29 09:26 108 5 gusting 9 26.1
2017-Mar-29 09:11 095 2 gusting 6 26.1
2017-Mar-29 08:56 089 3 gusting 6 26.1
2017-Mar-29 08:40 077 4 gusting 9 26.1
2017-Mar-29 08:26 068 3 gusting 6 26.1
2017-Mar-29 08:11 065 3 gusting 7 26.1
2017-Mar-29 07:55 088 4 gusting 8 26.1
2017-Mar-29 07:39 094 3 gusting 7 26.1
2017-Mar-29 07:24 089 3 gusting 6 26.1
2017-Mar-29 07:09 110 4 gusting 6 26.1
2017-Mar-29 06:53 099 2 gusting 10 26.1
2017-Mar-29 06:39 127 2 gusting 6 26.7
2017-Mar-29 06:24 104 3 gusting 7 26.7
2017-Mar-29 06:07 077 3 gusting 10 26.7
2017-Mar-29 05:52 105 3 gusting 6 26.7
2017-Mar-29 05:37 141 5 gusting 9 26.7
2017-Mar-29 05:22 078 4 gusting 7 26.7
2017-Mar-29 05:06 088 5 gusting 8 26.7
2017-Mar-29 04:51 101 5 gusting 10 26.7
2017-Mar-29 04:36 084 5 gusting 7 26.7
2017-Mar-29 04:21 074 5 gusting 8 26.7
2017-Mar-29 04:06 056 4 gusting 9 26.7
2017-Mar-29 03:50 070 3 gusting 9 26.7
2017-Mar-29 03:36 099 4 gusting 7 26.7
2017-Mar-29 03:21 100 2 gusting 8 26.7
2017-Mar-29 03:05 051 4 gusting 8 26.7
2017-Mar-29 02:49 079 3 gusting 7 26.7
2017-Mar-29 02:34 070 4 gusting 8 26.7
2017-Mar-29 02:19 073 3 gusting 8 26.7
2017-Mar-29 02:04 054 4 gusting 8 26.7
2017-Mar-29 01:49 087 3 gusting 7 26.7
2017-Mar-29 01:34 077 3 gusting 8 26.7
2017-Mar-29 01:17 063 5 gusting 9 26.7
2017-Mar-29 01:03 091 3 gusting 7 26.7
2017-Mar-29 00:47 097 3 gusting 8 26.7
2017-Mar-29 00:32 073 3 gusting 11 26.7
2017-Mar-29 00:17 098 1 gusting 8 26.7
2017-Mar-29 00:02 013 3 gusting 8 26.7
2017-Mar-28 23:46 070 3 gusting 9 26.7
2017-Mar-28 23:31 030 3 gusting 9 26.7
2017-Mar-28 23:15 062 1 gusting 7 26.7
2017-Mar-28 23:01 022 2 gusting 8 27.2
2017-Mar-28 22:44 042 4 gusting 8 27.2
2017-Mar-28 22:31 065 3 gusting 8 27.2
2017-Mar-28 22:16 077 5 gusting 10 27.8
2017-Mar-28 22:00 079 4 gusting 10 27.8
2017-Mar-28 21:44 025 5 gusting 10 27.8
2017-Mar-28 21:29 098 4 gusting 10 27.8
2017-Mar-28 21:13 074 4 gusting 9 28.3
2017-Mar-28 20:59 054 6 gusting 13 27.8
2017-Mar-28 20:44 060 6 gusting 11 28.3
2017-Mar-28 20:27 064 6 gusting 11 28.3
2017-Mar-28 20:12 039 6 gusting 10 28.3
2017-Mar-28 19:57 074 6 gusting 11 28.9
2017-Mar-28 19:42 063 5 gusting 13 28.9
2017-Mar-28 19:26 041 5 gusting 11 29.4
2017-Mar-28 19:12 067 6 gusting 13 29.4
2017-Mar-28 18:57 068 6 gusting 9 29.4
2017-Mar-28 18:41 071 6 gusting 10 30.0
2017-Mar-28 18:26 104 6 gusting 11 30.0
2017-Mar-28 18:11 111 8 gusting 13 30.0
2017-Mar-28 17:55 048 6 gusting 11 30.0
2017-Mar-28 17:41 074 6 gusting 14 29.4
2017-Mar-28 17:24 079 6 gusting 11 29.4
2017-Mar-28 17:09 096 6 gusting 11 30.0
2017-Mar-28 16:55 089 5 gusting 12 30.0
2017-Mar-28 16:39 098 8 gusting 12 30.0
2017-Mar-28 16:23 120 7 gusting 13 29.4
2017-Mar-28 16:09 099 7 gusting 11 30.0